| time (UTC) | temp F | wind direction | speed MPH | gust MPH | rain 1hr in | rain 24hr in | rain mn in | humidity % | barometer mb |
| 20260903143522 | 72 | 229 | 1.0 | 9.0 | 0.00 | 0.09 | 0.06 | 79 | 1015.3 |
| 20260903143015 | 72 | 160 | 2.0 | 6.0 | 0.00 | 0.09 | 0.06 | 80 | 1015.3 |
| 20260903142504 | 71 | 301 | 2.0 | 10.0 | 0.00 | 0.09 | 0.06 | 80 | 1015.3 |
| 20260903141934 | 71 | 266 | 0.0 | 7.0 | 0.00 | 0.09 | 0.06 | 83 | 1015.4 |
| 20260903141434 | 71 | 228 | 0.0 | 7.0 | 0.00 | 0.09 | 0.06 | 83 | 1015.3 |
| 20260903140943 | 70 | 321 | 1.0 | 7.0 | 0.00 | 0.09 | 0.06 | 84 | 1015.5 |
| 20260903140433 | 70 | 250 | 1.0 | 5.0 | 0.00 | 0.09 | 0.06 | 84 | 1015.5 |
| 20260903135439 | 70 | 200 | 1.0 | 7.0 | 0.00 | 0.09 | 0.06 | 84 | 1015.4 |
| 20260903134934 | 70 | 223 | 1.0 | 6.0 | 0.00 | 0.09 | 0.06 | 83 | 1015.3 |
| 20260903134435 | 70 | 4 | 1.0 | 11.0 | 0.00 | 0.09 | 0.06 | 83 | 1015.3 |
| 20260903133935 | 71 | 179 | 1.0 | 11.0 | 0.00 | 0.09 | 0.06 | 83 | 1015.4 |
| 20260903133410 | 71 | 184 | 1.0 | 1.0 | 0.00 | 0.09 | 0.06 | 82 | 1015.3 |
| 20260903132909 | 71 | 217 | 1.0 | 8.0 | 0.00 | 0.09 | 0.06 | 82 | 1015.4 |
| 20260903132413 | 71 | 141 | 2.0 | 8.0 | 0.00 | 0.09 | 0.06 | 82 | 1015.3 |
| 20260903131914 | 71 | 207 | 2.0 | 11.0 | 0.00 | 0.09 | 0.06 | 81 | 1015.0 |
| 20260903131411 | 71 | 44 | 2.0 | 11.0 | 0.00 | 0.09 | 0.06 | 80 | 1015.0 |
| 20260903130906 | 71 | 135 | 2.0 | 11.0 | 0.00 | 0.09 | 0.06 | 79 | 1014.9 |
| 20260903130407 | 72 | 210 | 2.0 | 11.0 | 0.00 | 0.09 | 0.06 | 77 | 1015.2 |
| 20260903125838 | 72 | 175 | 2.0 | 16.0 | 0.00 | 0.09 | 0.06 | 77 | 1015.1 |
| 20260903125335 | 71 | 111 | 3.0 | 16.0 | 0.00 | 0.09 | 0.06 | 79 | 1015.1 |
| 20260903124838 | 71 | 160 | 3.0 | 16.0 | 0.00 | 0.09 | 0.06 | 81 | 1015.1 |
| 20260903123311 | 71 | 119 | 3.0 | 6.0 | 0.00 | 0.09 | 0.06 | 79 | 1015.0 |
| 20260903122813 | 71 | 190 | 3.0 | 14.0 | 0.00 | 0.09 | 0.06 | 80 | 1014.8 |
| 20260903122314 | 71 | 231 | 3.0 | 14.0 | 0.00 | 0.09 | 0.06 | 82 | 1014.8 |
| 20260903121811 | 70 | 103 | 3.0 | 14.0 | 0.00 | 0.09 | 0.06 | 81 | 1014.9 |
| 20260903121356 | 70 | 110 | 2.0 | 14.0 | 0.00 | 0.09 | 0.06 | 82 | 1014.9 |
| 20260903120815 | 70 | 165 | 2.0 | 12.0 | 0.00 | 0.09 | 0.06 | 83 | 1015.0 |
| 20260903120331 | 70 | 189 | 3.0 | 12.0 | 0.00 | 0.09 | 0.06 | 82 | 1014.9 |
| 20260903115424 | 70 | 102 | 2.0 | 12.0 | 0.00 | 0.09 | 0.06 | 83 | 1015.0 |
| 20260903114315 | 70 | 153 | 2.0 | 12.0 | 0.00 | 0.09 | 0.06 | 84 | 1014.8 |
| 20260903113830 | 69 | 125 | 2.0 | 12.0 | 0.00 | 0.09 | 0.06 | 85 | 1014.8 |
| 20260903113309 | 69 | 129 | 2.0 | 9.0 | 0.00 | 0.09 | 0.06 | 85 | 1014.8 |
| 20260903112811 | 69 | 123 | 2.0 | 9.0 | 0.00 | 0.09 | 0.06 | 85 | 1014.7 |
| 20260903112306 | 69 | 129 | 2.0 | 15.0 | 0.00 | 0.09 | 0.06 | 84 | 1014.6 |
| 20260903111812 | 70 | 122 | 2.0 | 15.0 | 0.00 | 0.09 | 0.06 | 84 | 1014.5 |
| 20260903111310 | 69 | 191 | 3.0 | 19.0 | 0.00 | 0.09 | 0.06 | 84 | 1014.4 |
| 20260903110821 | 69 | 66 | 4.0 | 19.0 | 0.00 | 0.09 | 0.06 | 85 | 1014.5 |
| 20260903110314 | 69 | 113 | 3.0 | 19.0 | 0.00 | 0.09 | 0.06 | 83 | 1014.5 |
| 20260903105737 | 69 | 103 | 3.0 | 19.0 | 0.00 | 0.09 | 0.06 | 83 | 1014.5 |
| 20260903105233 | 70 | 11 | 2.0 | 14.0 | 0.00 | 0.09 | 0.06 | 83 | 1014.5 |
| 20260903104235 | 69 | 118 | 2.0 | 13.0 | 0.00 | 0.09 | 0.06 | 84 | 1014.5 |
| 20260903103709 | 69 | 133 | 2.0 | 13.0 | 0.00 | 0.09 | 0.06 | 83 | 1014.5 |
| 20260903103211 | 70 | 81 | 2.0 | 8.0 | 0.00 | 0.09 | 0.06 | 84 | 1014.4 |
| 20260903102709 | 70 | 297 | 3.0 | 14.0 | 0.00 | 0.09 | 0.06 | 84 | 1014.3 |
| 20260903102208 | 70 | 108 | 3.0 | 14.0 | 0.00 | 0.09 | 0.06 | 83 | 1014.4 |
| 20260903101709 | 70 | 140 | 2.0 | 8.0 | 0.00 | 0.09 | 0.06 | 83 | 1014.5 |
| 20260903101137 | 70 | 104 | 2.0 | 15.0 | 0.00 | 0.09 | 0.06 | 84 | 1014.3 |
| 20260903100139 | 70 | 92 | 3.0 | 12.0 | 0.00 | 0.09 | 0.06 | 83 | 1014.2 |
| 20260903095639 | 70 | 127 | 2.0 | 11.0 | 0.00 | 0.09 | 0.06 | 84 | 1014.2 |
| 20260903094615 | 69 | 190 | 3.0 | 13.0 | 0.00 | 0.09 | 0.06 | 84 | 1014.2 |
| 20260903093611 | 69 | 147 | 2.0 | 12.0 | 0.00 | 0.09 | 0.06 | 86 | 1014.3 |
| 20260903093108 | 69 | 85 | 2.0 | 10.0 | 0.00 | 0.09 | 0.06 | 86 | 1014.3 |
| 20260903092610 | 69 | 136 | 3.0 | 10.0 | 0.00 | 0.09 | 0.06 | 86 | 1014.2 |
| 20260903091611 | 69 | 209 | 3.0 | 12.0 | 0.00 | 0.09 | 0.06 | 86 | 1014.0 |
| 20260903091108 | 69 | 342 | 3.0 | 11.0 | 0.00 | 0.09 | 0.06 | 84 | 1014.1 |
| 20260903090609 | 70 | 169 | 2.0 | 11.0 | 0.00 | 0.09 | 0.06 | 84 | 1014.0 |
| 20260903090111 | 70 | 17 | 2.0 | 6.0 | 0.00 | 0.09 | 0.06 | 85 | 1014.0 |
| 20260903085609 | 69 | 86 | 3.0 | 12.0 | 0.00 | 0.09 | 0.06 | 85 | 1013.9 |
| 20260903085109 | 69 | 252 | 2.0 | 12.0 | 0.00 | 0.09 | 0.06 | 86 | 1013.8 |
| 20260903084605 | 69 | 122 | 2.0 | 11.0 | 0.00 | 0.09 | 0.06 | 86 | 1014.0 |
| 20260903084112 | 69 | 203 | 2.0 | 10.0 | 0.00 | 0.09 | 0.06 | 86 | 1013.8 |
| 20260903083537 | 68 | 253 | 2.0 | 3.0 | 0.00 | 0.09 | 0.06 | 86 | 1013.9 |
| 20260903083040 | 68 | 174 | 2.0 | 10.0 | 0.00 | 0.09 | 0.06 | 86 | 1013.7 |
| 20260903082535 | 68 | 121 | 1.0 | 9.0 | 0.00 | 0.09 | 0.06 | 86 | 1013.7 |
| 20260903082048 | 68 | 124 | 1.0 | 8.0 | 0.00 | 0.09 | 0.06 | 87 | 1013.7 |
| 20260903081528 | 68 | 93 | 1.0 | 8.0 | 0.00 | 0.09 | 0.06 | 87 | 1013.7 |
| 20260903080532 | 68 | 117 | 1.0 | 6.0 | 0.00 | 0.09 | 0.06 | 88 | 1013.6 |
| 20260903080019 | 68 | 143 | 1.0 | 5.0 | 0.00 | 0.09 | 0.06 | 88 | 1013.5 |
| 20260903075027 | 68 | 157 | 1.0 | 9.0 | 0.00 | 0.09 | 0.06 | 88 | 1013.5 |
| 20260903074524 | 68 | 133 | 1.0 | 9.0 | 0.00 | 0.09 | 0.06 | 89 | 1013.6 |
| 20260903073519 | 67 | 117 | 1.0 | 10.0 | 0.00 | 0.09 | 0.06 | 89 | 1013.5 |
| 20260903073027 | 67 | 121 | 1.0 | 10.0 | 0.00 | 0.09 | 0.06 | 89 | 1013.4 |
| 20260903071510 | 67 | 120 | 0.0 | 1.0 | 0.00 | 0.09 | 0.06 | 90 | 1013.6 |
| 20260903070935 | 67 | 149 | 0.0 | 1.0 | 0.00 | 0.09 | 0.06 | 90 | 1013.5 |
| 20260903070410 | 66 | 66 | 0.0 | 2.0 | 0.00 | 0.09 | 0.06 | 90 | 1013.7 |
| 20260903065908 | 66 | 197 | 0.0 | 2.0 | 0.00 | 0.09 | 0.05 | 90 | 1013.7 |
| 20260903064911 | 66 | 101 | 0.0 | 0.0 | 0.00 | 0.09 | 0.05 | 90 | 1013.6 |
| 20260903064408 | 66 | 203 | 0.0 | 3.0 | 0.00 | 0.09 | 0.05 | 90 | 1013.5 |
| 20260903063909 | 66 | 259 | 0.0 | 3.0 | 0.00 | 0.09 | 0.05 | 91 | 1013.4 |
| 20260903063410 | 66 | 154 | 0.0 | 1.0 | 0.00 | 0.09 | 0.05 | 91 | 1013.3 |
| 20260903062910 | 66 | 184 | 0.0 | 6.0 | 0.01 | 0.09 | 0.05 | 91 | 1013.3 |
| 20260903062407 | 66 | 205 | 0.0 | 6.0 | 0.01 | 0.09 | 0.05 | 91 | 1013.4 |
| 20260903061909 | 66 | 176 | 0.0 | 0.0 | 0.01 | 0.09 | 0.05 | 91 | 1013.3 |
| 20260903061333 | 66 | 166 | 0.0 | 4.0 | 0.01 | 0.09 | 0.05 | 91 | 1013.3 |
| 20260903060309 | 66 | 140 | 0.0 | 1.0 | 0.01 | 0.09 | 0.06 | 90 | 1013.3 |
| 20260903055817 | 65 | 221 | 0.0 | 3.0 | 0.01 | 0.09 | 0.06 | 90 | 1013.3 |
| 20260903055310 | 65 | 257 | 0.0 | 3.0 | 0.01 | 0.09 | 0.06 | 90 | 1013.1 |
| 20260903054312 | 66 | 220 | 0.0 | 7.0 | 0.01 | 0.09 | 0.06 | 90 | 1013.3 |
| 20260903053810 | 66 | 203 | 0.0 | 7.0 | 0.01 | 0.09 | 0.06 | 90 | 1013.5 |
| 20260903053311 | 66 | 193 | 0.0 | 4.0 | 0.01 | 0.09 | 0.05 | 90 | 1013.3 |
| 20260903052822 | 66 | 176 | 0.0 | 4.0 | 0.00 | 0.09 | 0.05 | 90 | 1013.4 |
| 20260903052307 | 66 | 222 | 0.0 | 4.0 | 0.00 | 0.09 | 0.05 | 90 | 1013.3 |
| 20260903051806 | 66 | 216 | 0.0 | 0.0 | 0.00 | 0.09 | 0.05 | 90 | 1013.4 |
| 20260903051238 | 66 | 203 | 0.0 | 5.0 | 0.00 | 0.09 | 0.05 | 90 | 1013.4 |
| 20260903050733 | 66 | 175 | 0.0 | 5.0 | 0.00 | 0.09 | 0.05 | 90 | 1013.4 |
| 20260903045711 | 67 | 201 | 0.0 | 7.0 | 0.00 | 0.09 | 0.05 | 90 | 1013.5 |
| 20260903045212 | 67 | 203 | 1.0 | 7.0 | 0.00 | 0.09 | 0.05 | 90 | 1013.5 |
| 20260903044706 | 67 | 209 | 1.0 | 5.0 | 0.00 | 0.09 | 0.05 | 90 | 1013.5 |
| 20260903044156 | 67 | 206 | 1.0 | 7.0 | 0.00 | 0.09 | 0.05 | 90 | 1013.4 |
| 20260903043633 | 67 | 43 | 1.0 | 5.0 | 0.00 | 0.09 | 0.05 | 90 | 1013.2 |
| 20260903043134 | 67 | 189 | 1.0 | 5.0 | 0.00 | 0.09 | 0.05 | 90 | 1013.2 |
| 20260903042110 | 67 | 196 | 0.0 | 5.0 | 0.00 | 0.09 | 0.05 | 90 | 1013.2 |
| 20260903041108 | 67 | 70 | 1.0 | 7.0 | 0.00 | 0.09 | 0.05 | 90 | 1013.3 |
| 20260903040610 | 66 | 248 | 1.0 | 6.0 | 0.00 | 0.09 | 0.05 | 91 | 1013.4 |
| 20260903040122 | 66 | 177 | 1.0 | 8.0 | 0.00 | 0.09 | 0.05 | 91 | 1013.4 |
| 20260903035619 | 66 | 205 | 0.0 | 8.0 | 0.00 | 0.09 | 0.05 | 91 | 1013.4 |
| 20260903035109 | 66 | 190 | 1.0 | 4.0 | 0.00 | 0.09 | 0.05 | 91 | 1013.4 |
| 20260903034538 | 66 | 196 | 1.0 | 4.0 | 0.00 | 0.09 | 0.05 | 91 | 1013.5 |
| 20260903034054 | 66 | 240 | 1.0 | 5.0 | 0.00 | 0.09 | 0.05 | 91 | 1013.4 |
| 20260903033544 | 66 | 224 | 1.0 | 5.0 | 0.00 | 0.09 | 0.05 | 91 | 1013.5 |
| 20260903033033 | 66 | 253 | 1.0 | 6.0 | 0.00 | 0.09 | 0.05 | 91 | 1013.5 |
| 20260903032522 | 66 | 91 | 0.0 | 6.0 | 0.00 | 0.09 | 0.05 | 91 | 1013.5 |
| 20260903031524 | 66 | 41 | 0.0 | 3.0 | 0.00 | 0.09 | 0.05 | 91 | 1013.6 |
| 20260903031012 | 66 | 210 | 1.0 | 3.0 | 0.00 | 0.09 | 0.05 | 91 | 1013.8 |
| 20260903030521 | 66 | 330 | 1.0 | 5.0 | 0.00 | 0.09 | 0.05 | 91 | 1013.8 |
| 20260903030007 | 66 | 219 | 1.0 | 8.0 | 0.00 | 0.09 | 0.05 | 91 | 1013.9 |
| 20260903025503 | 66 | 202 | 0.0 | 8.0 | 0.00 | 0.09 | 0.05 | 91 | 1013.8 |
| 20260903025013 | 66 | 150 | 0.0 | 6.0 | 0.00 | 0.09 | 0.05 | 91 | 1014.0 |
| 20260903024505 | 66 | 172 | 0.0 | 6.0 | 0.00 | 0.09 | 0.05 | 91 | 1013.9 |
| 20260903023933 | 66 | 182 | 0.0 | 6.0 | 0.00 | 0.09 | 0.05 | 91 | 1013.9 |
| 20260903023438 | 66 | 234 | 0.0 | 3.0 | 0.00 | 0.09 | 0.05 | 91 | 1014.0 |
| 20260903022937 | 66 | 219 | 0.0 | 3.0 | 0.00 | 0.09 | 0.05 | 91 | 1014.0 |
| 20260903022434 | 66 | 221 | 0.0 | 2.0 | 0.00 | 0.09 | 0.05 | 91 | 1014.1 |
| 20260903021931 | 65 | 231 | 0.0 | 2.0 | 0.00 | 0.09 | 0.05 | 91 | 1014.2 |
| 20260903021405 | 65 | 214 | 0.0 | 2.0 | 0.00 | 0.09 | 0.05 | 91 | 1014.1 |
| 20260903020907 | 65 | 255 | 1.0 | 7.0 | 0.00 | 0.09 | 0.05 | 91 | 1014.2 |
| 20260903020405 | 65 | 59 | 1.0 | 7.0 | 0.00 | 0.09 | 0.05 | 91 | 1014.2 |
| 20260903015849 | 65 | 65 | 1.0 | 7.0 | 0.00 | 0.09 | 0.03 | 91 | 1014.2 |
| 20260903015333 | 65 | 232 | 0.0 | 7.0 | 0.01 | 0.09 | 0.03 | 91 | 1014.3 |
| 20260903014837 | 65 | 56 | 1.0 | 5.0 | 0.01 | 0.09 | 0.03 | 91 | 1014.3 |
| 20260903014308 | 65 | 82 | 1.0 | 10.0 | 0.01 | 0.09 | 0.03 | 91 | 1014.4 |
| 20260903013822 | 65 | 41 | 0.0 | 10.0 | 0.01 | 0.09 | 0.03 | 91 | 1014.5 |
| 20260903013234 | 65 | 183 | 0.0 | 2.0 | 0.01 | 0.09 | 0.03 | 91 | 1014.4 |
| 20260903012211 | 65 | 221 | 1.0 | 12.0 | 0.01 | 0.09 | 0.03 | 91 | 1014.5 |
| 20260903011711 | 65 | 232 | 1.0 | 10.0 | 0.01 | 0.09 | 0.03 | 91 | 1014.6 |
| 20260903010708 | 65 | 72 | 0.0 | 7.0 | 0.01 | 0.09 | 0.03 | 91 | 1014.5 |
| 20260903010214 | 65 | 219 | 1.0 | 2.0 | 0.01 | 0.09 | 0.05 | 91 | 1014.6 |
| 20260903005711 | 65 | 268 | 0.0 | 7.0 | 0.02 | 0.09 | 0.05 | 91 | 1014.7 |
| 20260903005208 | 65 | 251 | 1.0 | 7.0 | 0.01 | 0.08 | 0.04 | 91 | 1014.6 |
| 20260903004215 | 64 | 266 | 0.0 | 8.0 | 0.01 | 0.08 | 0.04 | 91 | 1014.9 |
| 20260903003716 | 64 | 233 | 1.0 | 8.0 | 0.02 | 0.08 | 0.04 | 91 | 1014.9 |
| 20260903003207 | 64 | 231 | 1.0 | 8.0 | 0.02 | 0.08 | 0.04 | 92 | 1015.1 |
| 20260903002708 | 64 | 44 | 1.0 | 8.0 | 0.02 | 0.08 | 0.04 | 92 | 1015.2 |
| 20260903002207 | 64 | 254 | 0.0 | 6.0 | 0.02 | 0.08 | 0.04 | 92 | 1015.2 |
| 20260903001712 | 62 | 42 | 0.0 | 2.0 | 0.02 | 0.08 | 0.04 | 91 | 1015.4 |
| 20260903001209 | 62 | 84 | 0.0 | 4.0 | 0.02 | 0.08 | 0.04 | 91 | 1015.4 |
| 20260903000726 | 62 | 75 | 0.0 | 4.0 | 0.02 | 0.08 | 0.04 | 91 | 1015.4 |
| 20260903000211 | 62 | 65 | 0.0 | 0.0 | 0.02 | 0.08 | 0.03 | 91 | 1015.4 |
| 20260902235708 | 62 | 91 | 0.0 | 2.0 | 0.02 | 0.07 | 0.02 | 91 | 1015.4 |
| 20260902234713 | 62 | 66 | 0.0 | 0.0 | 0.03 | 0.07 | 0.02 | 91 | 1015.5 |
| 20260902234209 | 62 | 106 | 0.0 | 5.0 | 0.03 | 0.07 | 0.02 | 91 | 1015.5 |
| 20260902233709 | 62 | 68 | 0.0 | 5.0 | 0.02 | 0.06 | 0.01 | 90 | 1015.6 |
| 20260902233215 | 62 | 74 | 0.0 | 1.0 | 0.02 | 0.06 | 0.01 | 90 | 1015.7 |
| 20260902232710 | 62 | 84 | 0.0 | 5.0 | 0.02 | 0.06 | 0.01 | 90 | 1015.7 |
| 20260902231711 | 62 | 87 | 0.0 | 4.0 | 0.02 | 0.06 | 0.00 | 90 | 1015.9 |
| 20260902231206 | 62 | 60 | 0.0 | 5.0 | 0.02 | 0.06 | 0.00 | 90 | 1016.0 |
| 20260902230217 | 62 | 68 | 0.0 | 1.0 | 0.02 | 0.06 | 0.02 | 90 | 1016.2 |
| 20260902225710 | 62 | 63 | 0.0 | 7.0 | 0.02 | 0.06 | 0.02 | 90 | 1016.2 |
| 20260902225210 | 62 | 72 | 1.0 | 7.0 | 0.02 | 0.06 | 0.00 | 90 | 1016.4 |
| 20260902224713 | 62 | 75 | 0.0 | 5.0 | 0.00 | 0.04 | 0.00 | 89 | 1016.4 |
| 20260902224209 | 62 | 70 | 0.0 | 5.0 | 0.01 | 0.04 | 0.00 | 90 | 1016.4 |
| 20260902223710 | 63 | 60 | 0.0 | 5.0 | 0.01 | 0.04 | 0.00 | 90 | 1016.4 |
| 20260902223209 | 63 | 73 | 0.0 | 5.0 | 0.01 | 0.04 | 0.00 | 90 | 1016.4 |
| 20260902222709 | 63 | 72 | 1.0 | 11.0 | 0.01 | 0.04 | 0.00 | 90 | 1016.5 |
| 20260902222212 | 63 | 65 | 2.0 | 11.0 | 0.01 | 0.04 | 0.00 | 90 | 1016.5 |
| 20260902221712 | 62 | 113 | 3.0 | 11.0 | 0.01 | 0.04 | 0.00 | 90 | 1016.6 |
| 20260902221212 | 62 | 67 | 1.0 | 11.0 | 0.01 | 0.04 | 0.00 | 90 | 1016.6 |
| 20260902220712 | 62 | 179 | 1.0 | 10.0 | 0.01 | 0.04 | 0.00 | 91 | 1016.7 |
| 20260902220211 | 61 | 73 | 0.0 | 2.0 | 0.02 | 0.04 | 0.00 | 91 | 1016.9 |
| 20260902215711 | 61 | 331 | 0.0 | 2.0 | 0.02 | 0.04 | 0.04 | 91 | 1016.9 |
| 20260902215210 | 61 | 72 | 0.0 | 2.0 | 0.02 | 0.04 | 0.04 | 91 | 1017.0 |
| 20260902214708 | 61 | 72 | 0.0 | 2.0 | 0.02 | 0.04 | 0.03 | 91 | 1017.1 |
| 20260902214206 | 61 | 85 | 0.0 | 0.0 | 0.02 | 0.03 | 0.03 | 91 | 1017.0 |
| 20260902213640 | 61 | 75 | 0.0 | 0.0 | 0.02 | 0.03 | 0.03 | 91 | 1017.1 |
| 20260902212108 | 61 | 82 | 0.0 | 1.0 | 0.02 | 0.03 | 0.03 | 91 | 1017.2 |
| 20260902211609 | 61 | 79 | 0.0 | 0.0 | 0.02 | 0.03 | 0.03 | 90 | 1017.2 |
| 20260902211109 | 61 | 67 | 0.0 | 9.0 | 0.02 | 0.03 | 0.03 | 90 | 1017.2 |
| 20260902210117 | 62 | 66 | 1.0 | 10.0 | 0.01 | 0.02 | 0.02 | 90 | 1017.6 |
| 20260902205611 | 62 | 249 | 1.0 | 10.0 | 0.00 | 0.02 | 0.00 | 89 | 1017.6 |
| 20260902205109 | 62 | 147 | 1.0 | 12.0 | 0.00 | 0.02 | 0.00 | 88 | 1017.5 |
| 20260902204037 | 63 | 255 | 0.0 | 7.0 | 0.01 | 0.02 | 0.00 | 86 | 1017.4 |
| 20260902203537 | 62 | 236 | 0.0 | 6.0 | 0.01 | 0.02 | 0.00 | 85 | 1017.3 |
| 20260902203034 | 62 | 255 | 1.0 | 6.0 | 0.01 | 0.02 | 0.00 | 86 | 1017.3 |
| 20260902202517 | 62 | 64 | 1.0 | 6.0 | 0.01 | 0.02 | 0.00 | 87 | 1017.4 |
| 20260902202039 | 62 | 72 | 0.0 | 4.0 | 0.02 | 0.02 | 0.00 | 90 | 1017.5 |
| 20260902201013 | 62 | 70 | 0.0 | 1.0 | 0.02 | 0.02 | 0.00 | 90 | 1017.5 |
| 20260902200504 | 62 | 78 | 0.0 | 1.0 | 0.02 | 0.02 | 0.00 | 90 | 1017.6 |
| 20260902195935 | 63 | 77 | 0.0 | 2.0 | 0.02 | 0.02 | 0.02 | 90 | 1017.6 |
| 20260902195436 | 63 | 114 | 0.0 | 2.0 | 0.02 | 0.02 | 0.02 | 89 | 1017.7 |
| 20260902194934 | 63 | 60 | 0.0 | 1.0 | 0.02 | 0.02 | 0.02 | 89 | 1017.7 |
| 20260902194433 | 63 | 79 | 0.0 | 0.0 | 0.02 | 0.02 | 0.01 | 89 | 1017.6 |
| 20260902193433 | 63 | 77 | 0.0 | 0.0 | 0.01 | 0.01 | 0.01 | 88 | 1017.7 |
| 20260902192911 | 63 | 77 | 0.0 | 2.0 | 0.01 | 0.01 | 0.01 | 88 | 1017.7 |
| 20260902191910 | 63 | 85 | 0.0 | 0.0 | 0.00 | 0.00 | 0.00 | 88 | 1017.8 |
| 20260902191410 | 63 | 85 | 0.0 | 0.0 | 0.00 | 0.00 | 0.00 | 88 | 1017.8 |
| 20260902190908 | 63 | 75 | 0.0 | 0.0 | 0.00 | 0.00 | 0.00 | 88 | 1017.9 |
| 20260902190410 | 63 | 74 | 0.0 | 0.0 | 0.00 | 0.00 | 0.00 | 88 | 1017.9 |
| 20260902185411 | 63 | 77 | 0.0 | 1.0 | 0.00 | 0.00 | 0.00 | 88 | 1017.8 |
| 20260902184915 | 63 | 60 | 0.0 | 1.0 | 0.00 | 0.00 | 0.00 | 88 | 1018.0 |
| 20260902184417 | 63 | 74 | 0.0 | 5.0 | 0.00 | 0.00 | 0.00 | 88 | 1018.0 |
| 20260902183414 | 63 | 65 | 1.0 | 3.0 | 0.00 | 0.00 | 0.00 | 88 | 1018.1 |
| 20260902182910 | 63 | 59 | 1.0 | 5.0 | 0.00 | 0.00 | 0.00 | 88 | 1018.1 |
| 20260902181910 | 63 | 63 | 0.0 | 0.0 | 0.00 | 0.00 | 0.00 | 87 | 1018.2 |
| 20260902180908 | 64 | 211 | 0.0 | 10.0 | 0.00 | 0.00 | 0.00 | 86 | 1018.3 |
| 20260902180412 | 66 | 56 | 0.0 | 7.0 | 0.00 | 0.00 | 0.00 | 83 | 1018.3 |
| 20260902174907 | 66 | 72 | 0.0 | 0.0 | 0.00 | 0.00 | 0.00 | 81 | 1018.1 |
| 20260902174421 | 66 | 32 | 0.0 | 6.0 | 0.00 | 0.00 | 0.00 | 81 | 1018.1 |
| 20260902173908 | 66 | 31 | 0.0 | 6.0 | 0.00 | 0.00 | 0.00 | 82 | 1018.0 |
| 20260902172834 | 66 | 72 | 0.0 | 1.0 | 0.00 | 0.00 | 0.00 | 82 | 1018.2 |
| 20260902171813 | 66 | 85 | 0.0 | 1.0 | 0.00 | 0.00 | 0.00 | 82 | 1018.2 |
| 20260902170807 | 66 | 216 | 0.0 | 4.0 | 0.00 | 0.00 | 0.00 | 81 | 1018.2 |
| 20260902170322 | 66 | 64 | 0.0 | 7.0 | 0.00 | 0.00 | 0.00 | 80 | 1018.2 |
| 20260902165811 | 66 | 189 | 0.0 | 7.0 | 0.00 | 0.00 | 0.00 | 79 | 1018.2 |
| 20260902165309 | 66 | 110 | 0.0 | 1.0 | 0.00 | 0.00 | 0.00 | 78 | 1018.2 |
| 20260902164810 | 67 | 224 | 1.0 | 7.0 | 0.00 | 0.00 | 0.00 | 78 | 1018.3 |
| 20260902164311 | 67 | 266 | 1.0 | 7.0 | 0.00 | 0.00 | 0.00 | 78 | 1018.2 |
| 20260902163314 | 67 | 233 | 0.0 | 0.0 | 0.00 | 0.00 | 0.00 | 81 | 1018.3 |
| 20260902162811 | 67 | 233 | 0.0 | 5.0 | 0.00 | 0.00 | 0.00 | 80 | 1018.3 |
| 20260902161809 | 67 | 123 | 1.0 | 6.0 | 0.00 | 0.00 | 0.00 | 79 | 1018.3 |
| 20260902161312 | 67 | 250 | 0.0 | 6.0 | 0.00 | 0.00 | 0.00 | 80 | 1018.4 |
| 20260902160740 | 67 | 233 | 0.0 | 2.0 | 0.00 | 0.00 | 0.00 | 81 | 1018.4 |
| 20260902160238 | 67 | 245 | 0.0 | 2.0 | 0.00 | 0.00 | 0.00 | 81 | 1018.4 |
| 20260902155729 | 67 | 68 | 0.0 | 0.0 | 0.00 | 0.00 | 0.00 | 82 | 1018.5 |
| 20260902155209 | 67 | 83 | 0.0 | 0.0 | 0.00 | 0.00 | 0.00 | 81 | 1018.6 |
| 20260902154708 | 67 | 104 | 0.0 | 0.0 | 0.00 | 0.00 | 0.00 | 80 | 1018.6 |
| 20260902153708 | 68 | 269 | 0.0 | 8.0 | 0.00 | 0.00 | 0.00 | 77 | 1018.6 |
| 20260902153209 | 68 | 181 | 0.0 | 5.0 | 0.00 | 0.00 | 0.00 | 78 | 1018.6 |
| 20260902151633 | 68 | 167 | 0.0 | 5.0 | 0.00 | 0.00 | 0.00 | 77 | 1018.8 |
| 20260902151109 | 68 | 172 | 0.0 | 5.0 | 0.00 | 0.00 | 0.00 | 77 | 1018.9 |
| 20260902145614 | 68 | 187 | 0.0 | 4.0 | 0.00 | 0.00 | 0.00 | 76 | 1018.9 |
| 20260902144628 | 68 | 184 | 0.0 | 5.0 | 0.00 | 0.00 | 0.00 | 74 | 1019.0 |
| 20260902144109 | 68 | 262 | 0.0 | 3.0 | 0.00 | 0.00 | 0.00 | 75 | 1019.0 |